Springfield, MO

1:34 PM CDT on September 23, 2017 (GMT -0500)
Springfield-Branson Regional

Weather History for KSGF - October, 2011

Change the Weather History Date:

Wednesday, October 12, 2011

  Actual Average Record
Temperature  
Mean Temperature 64 °F 59 °F  
Max Temperature 70 °F 70 °F 88 °F (1899)
Min Temperature 57 °F 48 °F 27 °F (1987)
Degree Days  
Heating Degree Days 1 7  
Month to date heating degree days 31 70  
Since 1 July heating degree days 124 125  
Cooling Degree Days 0 1  
Month to date cooling degree days 19 18  
Year to date cooling degree days 1811 1377  
Growing Degree Days 14 (Base 50)    
Moisture  
Dew Point 58 °F    
Average Humidity 84    
Maximum Humidity 97    
Minimum Humidity 70    
Precipitation  
Precipitation 0.39 in 0.11 in 3.27 in (1969)
Month to date precipitation 0.57 1.40  
Year to date precipitation 31.78 36.12  
Snow  
Snow 0.00 in - - ()
Month to date snowfall 0.0  
Since 1 July snowfall 0.0  
Since 1 September snowfall 0.0  
Snow Depth 0.00 in    
Sea Level Pressure  
Sea Level Pressure 29.76 in    
Wind  
Wind Speed 10 mph (SSE)    
Max Wind Speed 20 mph    
Max Gust Speed 24 mph    
Visibility 10 miles    
Events Rain , Thunderstorm    
T = Trace of Precipitation, MM = Missing Value Source: NWS Daily Summary

Daily Weather History Graph

Daily Weather History Graph

Search for Another Location

Airport or City:

Trip Planner

Search our weather history database for the weather conditions in past years. The results will help you decide how hot, cold, wet, or windy it might be!

Date:

Astronomy

Oct. 12, 2011 Rise Set
Actual Time 7:18 AM CDT 6:41 PM CDT
Civil Twilight 6:52 AM CDT 7:07 PM CDT
Nautical Twilight 6:22 AM CDT 7:37 PM CDT
Astronomical Twilight 5:51 AM CDT 8:07 PM CDT
Moon 6:46 PM CDT (10/12) 7:51 AM CDT (10/12)
Length of Visible Light 12h 14m
Length of Day
11h 22m
Full, 100% of the Moon is Illuminated
Oct 12
Full
Oct 19
Last Quarter
Oct 26
New
Nov 2
First Quarter
Nov 10
Full

Hourly Weather History & Observations

Time (CDT) Temp. Dew Point Humidity Pressure Visibility Wind Dir Wind Speed Gust Speed Precip Events Conditions
12:52 AM 62.1 °F 59.0 °F 90% 29.81 in 10.0 mi SSE 10.4 mph - N/A   Clear
1:52 AM 60.8 °F 59.0 °F 94% 29.83 in 10.0 mi SSE 8.1 mph - N/A   Clear
2:52 AM 61.0 °F 59.0 °F 93% 29.81 in 10.0 mi SSE 10.4 mph - N/A   Mostly Cloudy
3:52 AM 61.0 °F 57.9 °F 90% 29.78 in 10.0 mi SE 11.5 mph - N/A   Mostly Cloudy
4:52 AM 61.0 °F 57.9 °F 90% 29.77 in 10.0 mi SSE 10.4 mph - N/A   Scattered Clouds
5:52 AM 61.0 °F 59.0 °F 93% 29.80 in 10.0 mi South 17.3 mph 21.9 mph N/A   Overcast
5:54 AM 62.6 °F 57.2 °F 82% 29.82 in 10.0 mi South 17.3 mph 21.9 mph N/A Thunderstorm Thunderstorm
6:52 AM 60.1 °F 57.9 °F 93% 29.79 in 10.0 mi SSE 15.0 mph - 0.35 in Rain , Thunderstorm Light Thunderstorms and Rain
7:52 AM 60.8 °F 57.2 °F 88% 29.81 in 10.0 mi SSE 9.2 mph - N/A Rain , Thunderstorm Light Thunderstorms and Rain
8:52 AM 60.8 °F 57.2 °F 88% 29.81 in 10.0 mi South 10.4 mph - N/A Thunderstorm Thunderstorm
9:04 AM 60.8 °F 57.2 °F 88% 29.81 in 10.0 mi SSE 11.5 mph - N/A   Mostly Cloudy
9:52 AM 60.1 °F 57.9 °F 93% 29.80 in 10.0 mi South 9.2 mph - 0.00 in   Overcast
10:52 AM 60.1 °F 57.9 °F 93% 29.80 in 10.0 mi South 11.5 mph - 0.01 in Rain Light Rain
11:52 AM 62.1 °F 60.1 °F 93% 29.78 in 10.0 mi South 9.2 mph - 0.01 in Rain Light Rain
12:15 PM 62.6 °F 60.8 °F 94% 29.79 in 10.0 mi South 8.1 mph - 0.00 in   Mostly Cloudy
12:52 PM 62.6 °F 60.8 °F 94% 29.78 in 10.0 mi SSE 12.7 mph - N/A   Mostly Cloudy
1:52 PM 66.0 °F 60.1 °F 81% 29.73 in 10.0 mi SSE 12.7 mph - N/A   Partly Cloudy
2:52 PM 68.0 °F 60.1 °F 76% 29.70 in 10.0 mi South 11.5 mph - N/A   Partly Cloudy
3:52 PM 69.1 °F 59.0 °F 70% 29.69 in 10.0 mi South 12.7 mph - N/A   Partly Cloudy
4:52 PM 70.0 °F 60.1 °F 71% 29.67 in 10.0 mi SSW 12.7 mph - N/A   Clear
5:52 PM 68.0 °F 60.1 °F 76% 29.65 in 10.0 mi South 11.5 mph - N/A   Clear
6:52 PM 64.9 °F 59.0 °F 81% 29.65 in 10.0 mi South 9.2 mph - N/A   Clear
7:52 PM 63.0 °F 60.1 °F 90% 29.65 in 10.0 mi SSE 10.4 mph - N/A   Clear
8:52 PM 62.6 °F 57.2 °F 82% 29.70 in 10.0 mi South 4.6 mph - N/A   Mostly Cloudy
9:52 PM 59.0 °F 53.6 °F 82% 29.71 in 10.0 mi NNE 15.0 mph - N/A   Partly Cloudy
10:52 PM 59.0 °F 54.0 °F 83% 29.72 in 10.0 mi NE 11.5 mph - 0.00 in Rain Light Rain
11:52 PM 57.2 °F 51.8 °F 82% 29.73 in 10.0 mi Calm Calm - N/A   Mostly Cloudy